Home > Weather > Kenora > Past weeks

Flag for Canada Past Weather in Kenora, Ontario, Canada — Yesterday and Last 2 Weeks

Now
59 °F

Sprinkles. Overcast.


Feels Like: 58 °F
Forecast: N/A
Wind: 8 mph from South

Location: Kenora

Current Time: Aug 27, 2016 at 3:50:58 PM

Latest Report: Aug 27, 2016 at 3:00 PM


Visibility: 6 mi

Pressure: 29.99 "Hg

Humidity: 94%

Dew Point: 57 °F

Location of KenoraLocation

Past Weather in Kenora — Graph

°F

Kenora Temperature Yesterday

Maximum temperature yesterday: 70 °F (at 4:00 PM)
Minimum temperature yesterday: 48 °F (at 7:00 AM)
Average temperature yesterday: 62 °F

High & Low Weather Summary for the Past Weeks

 TemperatureHumidityPressure
High81 °F (Aug 22, 4:00 PM)100% (Aug 16, 2:00 AM)30.10 "Hg (Aug 16, 2:00 AM)
Low48 °F (Aug 26, 7:00 AM)40% (Aug 21, 4:00 PM)29.68 "Hg (Aug 23, 11:00 PM)
Average66 °F75%29.90 "Hg
* Reported Aug 12 2:00 PM — Aug 27 2:00 PM, Kenora, Weather by CustomWeather, © 2016

Note: Actual official high and low records may vary slightly from our data, if they occured in-between our weather recording intervals... More about our weather records

Advertising

Kenora Weather History for the Previous 24 Hours

Scroll right to see more
 ConditionsComfort  
Time TempWeatherWind HumidityBarometerVisibility
2:00 PM
Sat, Aug 27
59 °FSprinkles. More clouds than sun.8 mph94%30.00 "Hg8 mi
1:00 PM59 °FThunderstorms. Mostly cloudy.12 mph94%30.00 "Hg4 mi
12:56 PM59 °FThunderstorms. Mostly cloudy.14 mph94%30.00 "Hg6 mi
12:00 PM66 °FScattered showers. Cloudy.10 mph73%29.99 "Hg15 mi
11:00 AM64 °FPartly sunny.10 mph73%30.01 "Hg15 mi
10:00 AM64 °FBroken clouds.9 mph73%30.01 "Hg15 mi
9:00 AM64 °FPartly sunny.9 mph68%30.01 "Hg15 mi
8:00 AM61 °FBroken clouds.7 mph83%30.01 "Hg15 mi
7:00 AM59 °FBroken clouds.6 mph88%30.01 "Hg15 mi
6:00 AM61 °FPassing clouds.8 mph68%30.01 "Hg15 mi
5:00 AM59 °FPartly cloudy.7 mph77%30.01 "Hg15 mi
4:00 AM59 °FPassing clouds.7 mph77%30.01 "Hg15 mi
3:00 AM61 °FPartly cloudy.7 mph77%30.02 "Hg15 mi
2:00 AM61 °FPartly cloudy.6 mph77%30.02 "Hg15 mi
1:00 AM63 °FPartly cloudy.8 mph73%30.03 "Hg15 mi
12:00 AM63 °FPartly cloudy.8 mph77%30.02 "Hg15 mi
11:00 PM
Fri, Aug 26
63 °FPartly cloudy.7 mph68%30.02 "Hg15 mi
10:00 PM63 °FPartly cloudy.6 mph68%30.02 "Hg15 mi
9:00 PM64 °FPartly cloudy.6 mph64%30.02 "Hg15 mi
8:00 PM68 °FBroken clouds.7 mph56%30.01 "Hg15 mi
7:00 PM68 °FPartly sunny.6 mph56%30.03 "Hg15 mi
6:00 PM70 °FPartly sunny.7 mph53%30.03 "Hg15 mi
5:00 PM70 °FBroken clouds.10 mph50%30.04 "Hg15 mi
4:00 PM70 °FPartly sunny.8 mph50%30.05 "Hg15 mi
3:00 PM68 °FPartly sunny.7 mph49%30.07 "Hg15 mi
Weather by CustomWeather, © 2016

See weather overviewHow to use our weather pages